Weather in Severnoye

Russia / Amur Oblast     49°26′59″N   129°33′23″E
temp.,
°C
wind,
m/s
gust,
m/s
humid.,
%
clouds,
%
prec.,
mm/h
press.,
hPa
HPBL,
m
16 may, sun
sun1600:00+9wsw412705 0.0 1001249
03:00+8wsw410750 0.0 1001198
06:00+8w410720 0.0 1002297
09:00+14wnw610500 0.0 1002904
12:00+19wnw710340 0.0 10022186
15:00+21wnw69275 0.0 10002947
18:00+20w23355 0.0 1000223
21:00+14ssw22470 0.0 100015
17 may, mon
mon1700:00+12sw224769 0.0 100011
03:00+10wsw11510 0.0 99910
06:00+10wsw23630 0.0 99983
09:00+17w46435 0.0 999509
12:00+21wnw46385 0.0 9991510
15:00+22nw57364 0.0 9992401
18:00+21nnw23405 0.0 9991070
21:00+15ese45545 0.0 99861
18 may, tue
tue1800:00+13ene346112 0.0 99757
03:00+11ese2372100 0.0 99443
06:00+11nw2373100 0.0 995167
09:00+13w466072 0.0 997520
12:00+16wnw45525 0.0 9981093
15:00+19wnw784430 0.0 9992126
18:00+15n695376 0.0 1000375
21:00+11n3768100 0.0 1003145
19 may, wed
wed1900:00+8nne227499 0.0 100523
03:00+7e117086 0.0 100610
06:00+8ene23710 0.0 1006106
09:00+15sse34505 0.0 1005678
12:00+20wnw58315 0.0 10042469
15:00+22wnw6112640 0.0 10033088
18:00+19nne464163 0.0 1004246
21:00+13e485681 0.0 1005126
20 may, thu
thu2000:00+11se31161100 0.0 1003193
03:00+13sse4115499 0.0 1001229
06:00+13se3682100 0.8 1000149
09:00+21sw51051100 1.4 9991033
12:00+24w794492 0.0 10001776
15:00+27wnw6103918 0.0 9992269
18:00+22n675268 0.0 1002926
21:00+15n512591 0.1 1005367